Location: McFarlands Corners
(41.4117°N, 81.3382°W)
Time: 00:28:56
(UTC+00:00)

Transit 4A - Pass Details

Date: 19 February 2026
Orbit: 864 x 977 km, 66.8° (Epoch: 10 March)

Event Time Altitude Azimuth Distance (km) Brightness Sun altitude
Rises 18:13:48 0° 326° (NW) 3,619 10.6 36.9°
Reaches altitude 10° 18:16:22 10° 322° (NW) 2,685 10.1 36.8°
Maximum altitude 18:22:28 55° 246° (WSW) 1,155 9.4 36.6°
Drops below altitude 10° 18:28:38 10° 171° (S) 2,714 11.4 36.3°
Sets 18:31:15 0° 167° (SSE) 3,660 11.8 36.2°
